Location: *
(40.4270°N, 9.4940°E)
Time: 20:41:41
(UTC+02:00)

Daily predictions for brighter satellites

Satellite Brightness Start Highest point End
(mag) Time Altitude Azimuth Time Altitude Azimuth Time Altitude Azimuth
ARGOS 4.4 21:04:16 10° ESE 21:08:32 25° ENE 21:12:50 10° NNE
Cosmos 2100 Rocket 4.2 21:04:21 10° S 21:10:42 85° W 21:17:03 10° N
Cosmos 371 Rocket 3.3 21:06:35 10° SSW 21:11:23 80° ESE 21:16:14 10° NNE
Cosmos 1975 4.5 21:08:56 10° NNE 21:11:50 19° ENE 21:14:42 10° ESE
Transit 2A Rocket 4.5 21:11:03 10° NNW 21:15:25 79° ENE 21:19:43 10° SSE
Cosmos 2016 Rocket 3.9 21:14:43 10° S 21:20:47 76° E 21:26:55 10° N
COSMOS 2487 2.8 21:18:20 10° S 21:21:40 44° ESE 21:25:01 10° NNE
Cosmos 2151 Rocket 3.7 21:17:41 10° N 21:22:11 83° W 21:26:36 10° S
Tsikada Rocket 4.4 21:16:20 10° N 21:22:31 48° ENE 21:28:41 10° SSE
Tiangong 2 2.6 21:20:56 10° S 21:23:09 18° SE 21:25:15 11° ESE
USA 238 DEB 3.7 21:17:42 10° SSW 21:24:30 71° ESE 21:31:24 10° NE
USA 238 3.7 21:17:50 10° SSW 21:24:37 70° ESE 21:31:30 10° NE
Cosmos 332 Rocket 4.1 21:20:12 10° SSW 21:24:58 71° WNW 21:29:49 10° NNE
Cosmos 1184 Rocket 3.0 21:25:40 10° SSW 21:29:00 76° W 21:32:23 10° N
Cosmos 1725 Rocket 4.0 21:24:06 10° S 21:30:11 65° E 21:36:19 10° NNE
Lacrosse 4 Rocket 4.4 21:31:40 10° W 21:33:18 12° WSW 21:34:56 10° SW
Cosmos 1697 Rocket 3.0 21:27:59 10° NNW 21:33:38 69° WSW 21:39:13 10° SSE
Okean 3 3.5 21:31:19 10° S 21:35:38 87° E 21:39:56 10° N
Meteor 1-18 Rocket 4.3 21:30:52 10° S 21:36:35 64° E 21:42:25 10° NNE
Spot 2 Rocket 3.5 21:31:43 10° SSE 21:36:46 89° WSW 21:41:51 10° NNW
GPS 2-04 Rocket1 3.5 21:35:15 10° WSW 21:39:15 41° S 21:42:16 16° ESE
Cosmos 1300 Rocket 3.7 21:35:21 10° N 21:39:44 76° W 21:44:04 10° S
Cosmos 44 Rocket 3.8 21:35:16 10° NW 21:40:24 65° WSW 21:45:21 11° SSE
Cosmos 2360 Rocket 4.3 21:39:12 10° NNE 21:41:44 13° NE 21:44:16 10° ENE
USA 186 4.1 21:39:28 10° SSW 21:42:00 23° W 21:44:38 10° NW
Cosmos 1980 Rocket 2.2 21:39:38 10° NNW 21:45:20 85° ENE 21:50:21 14° SSE
Terra 4.1 21:46:36 10° ENE 21:46:56 10° ENE 21:47:16 10° NE
Cosmos 1570 Rocket 4.0 21:46:07 10° S 21:51:22 63° ESE 21:56:41 10° NNE
Okean 1 3.3 21:47:22 10° S 21:51:24 80° E 21:55:29 10° N
BREEZE-M DEB (TANK) 2.1 21:53:25 10° WNW 21:55:40 87° SSW 21:57:48 22° SE
USA 245 4.3 21:55:06 19° E 21:56:19 24° ENE 21:59:25 10° N
DNEPR-1 R/B 3.4 21:53:18 10° SSW 21:57:29 82° ESE 22:02:11 10° NE
Cosmos 1763 Rocket 4.4 21:54:27 17° SSE 21:57:39 30° E 22:02:14 10° NE
NOSS 3-2 (A) 3.3 21:52:50 10° SSW 21:58:38 71° ESE 22:05:02 10° NE
USA 234 3.9 21:52:19 10° NE 21:58:45 61° NW 22:05:12 10° WSW
SL-08 RB Rocket 4.0 21:57:15 20° SE 22:00:07 50° ENE 22:04:32 10° N
Lacrosse 5 rocket 4.1 21:58:51 10° N 22:00:23 12° NNE 22:01:54 10° NE
Meteor 2-4 Rocket 4.4 21:57:35 19° SE 22:00:36 32° E 22:05:27 10° NNE
NOSS 3-2 (C) 3.5 21:56:12 10° SSW 22:01:51 53° ESE 22:08:04 10° NE
H-2A R/B 2.1 22:01:42 20° SE 22:04:59 59° ENE 22:09:54 10° N
Cosmos 304 Rocket 4.1 22:09:12 10° SSW 22:13:59 70° WNW 22:18:49 10° NNE
Cosmos 2233 Rocket 4.0 22:08:22 10° S 22:14:30 89° W 22:20:43 10° N
Cosmos 2208 Rocket 4.0 22:12:22 10° SSW 22:17:35 86° WNW 22:22:46 10° NNE
ISS -3.8 22:15:17 10° SW 22:18:32 80° NW 22:21:49 10° NE
Shenzhou-11 Module 2.6 22:16:05 10° W 22:19:01 53° N 22:20:39 22° ENE
BREEZE-M R/B 3.0 22:16:14 10° WSW 22:20:14 53° NNW 22:22:49 10° NE
Cosmos 1666 2.7 22:16:51 10° N 22:20:43 80° W 22:22:44 27° S
Cosmos 1743 2.6 22:17:35 10° N 22:21:27 85° W 22:23:16 30° S
Cosmos 1898 Rocket 3.6 22:16:16 10° NNW 22:21:34 69° ENE 22:24:20 29° SSE
Atlas Centaur 2 3.0 22:23:02 10° SW 22:24:17 15° SSW 22:24:17 15° SSW
Cosmos 1455 Rocket 3.6 22:22:11 10° N 22:26:20 42° ENE 22:27:34 34° ESE
Helios 1B rocket 3.2 22:23:19 10° NNE 22:27:03 32° E 22:27:21 32° ESE
MetOp-A 4.3 22:23:23 19° S 22:27:15 70° WSW 22:32:37 10° NNW
Cosmos 1814 Rocket 4.1 22:25:46 23° S 22:28:49 54° ESE 22:33:58 10° NNE
Cosmos 1340 Rocket 3.3 22:29:15 38° ESE 22:29:50 40° E 22:33:39 10° NNE
ERS-1 Rocket 2.9 22:28:01 28° SSE 22:30:42 85° ENE 22:35:45 10° NNW
ATLAS CENTAUR R/B 2.7 22:27:38 10° NW 22:31:52 37° WSW 22:34:22 22° S
Cosmos 2322 Rocket 2.2 22:28:25 10° NNW 22:34:01 67° ENE 22:36:32 33° SE
Cosmos 1975 Rocket 3.3 22:31:12 17° SSW 22:34:32 67° W 22:38:51 10° N
Timation 2 Rocket 3.8 22:29:44 10° SSW 22:35:42 87° WNW 22:41:47 10° NNE
Iridium 2 3.8 22:34:00 28° SSW 22:35:52 72° W 22:39:42 10° N
CENTAUR R/B 2.8 22:34:21 27° SSE 22:37:01 42° ESE 22:43:12 10° NE
Resurs 01 Rocket 4.3 22:35:45 10° WSW 22:37:58 14° W 22:40:11 10° WNW
Abrixas rocket 4.0 22:36:53 10° SW 22:38:02 20° SW 22:38:02 20° SW
SL-16 R/B 2.1 22:34:37 10° NNW 22:40:20 80° ENE 22:42:49 35° SSE
deb Kosmos-1763 4.4 22:39:50 20° SSW 22:42:14 64° WNW 22:45:56 10° NNE
Cosmos 292 Rocket 4.0 22:43:07 42° SE 22:44:02 48° ESE 22:48:37 10° NNE
Cosmos 1242 Rocket 3.3 22:41:19 10° NNW 22:44:52 48° W 22:46:03 34° SSW
Cosmos 2150 Rocket 4.2 22:41:20 10° NNW 22:46:41 58° ENE 22:48:27 39° SE
ATLAS 3B R/B 3.8 22:40:01 10° WSW 22:46:51 46° NW 22:53:28 10° NNE
Cosmos 1356 4.0 22:48:04 44° ENE 22:48:04 44° ENE 22:50:56 10° NNE
Cosmos 1975 4.5 22:44:49 10° NNW 22:48:21 29° W 22:50:48 16° SW
ARGOS 4.1 22:44:45 18° SSW 22:48:30 44° W 22:53:39 10° NNW
Cosmos 990 Rocket 3.9 22:46:14 10° NNW 22:51:28 89° WSW 22:53:18 42° SSE
Cosmos 2034 Rocket 4.1 22:50:45 36° SSE 22:53:02 55° E 22:59:02 10° NNE
Cosmos 1544 Rocket 3.5 22:48:40 10° N 22:53:06 87° ENE 22:54:11 51° S
Cosmos 1513 Rocket 4.4 22:53:23 33° S 22:56:13 74° E 23:02:22 10° N
SPOT 5 2.5 22:56:22 51° S 22:57:26 84° WSW 23:01:56 10° NNW
CZ-2C R/B 3.9 22:56:49 32° E 22:58:09 38° ENE 23:03:11 10° N
Meteor 1-29 3.6 22:55:58 10° NNE 22:58:41 45° NE 22:58:41 45° NE
Cosmos 1464 Rocket 4.0 22:55:56 28° S 22:59:31 87° E 23:05:56 10° N
Tiangong 2 3.1 22:56:25 10° WSW 22:57:34 20° WSW 22:57:34 20° WSW
SL-19 R/B 4.5 22:59:30 40° SE 23:01:45 73° ENE 23:08:07 10° NNW
Cosmos 1515 3.6 23:01:52 74° E 23:01:52 74° E 23:05:40 10° NNE
Landsat 7 3.7 23:04:09 54° SSE 23:05:14 88° E 23:10:02 10° NNW
Cosmos 2298 Rocket 4.0 23:00:30 10° NNW 23:05:50 85° WSW 23:07:17 49° S
Cosmos 1536 Rocket 3.4 23:07:07 65° SSE 23:07:43 82° E 23:12:11 10° N
SJ 16-02 2.1 23:09:39 10° N 23:13:51 39° ENE 23:14:00 39° ENE
Helios 1A 3.7 23:14:01 40° SW 23:14:47 45° W 23:18:47 10° NNW
CZ-4C R/B 4.1 23:12:36 10° NNW 23:18:54 33° NE 23:23:38 18° E
Meteor 1-23 Rocket 4.1 23:17:45 42° SSW 23:19:44 83° W 23:25:20 10° N
Terra 1.6 23:23:21 71° SSE 23:23:54 89° ENE 23:28:41 10° NNW
Cosmos 1937 Rocket 4.3 23:21:17 10° NNW 23:26:05 42° WSW 23:27:22 35° SW
Cosmos 2360 Rocket 2.1 23:21:02 10° NNW 23:26:42 78° ENE 23:27:45 59° SE
Cosmos 2219 Rocket 3.5 23:28:45 10° N 23:33:28 27° NE 23:34:54 24° E
Spot 4 4.4 23:35:40 44° ENE 23:35:45 44° ENE 23:40:21 10° N
Cosmos 2333 Rocket 3.6 23:33:27 10° N 23:38:14 27° NE 23:39:47 24° E
CARTOSAT-1 4.1 23:40:26 50° WSW 23:40:28 50° W 23:44:41 10° NNW
Lacrosse 5 rocket 2.5 23:36:50 10° NNW 23:40:48 36° NE 23:40:57 35° NE
Cosmos 841 Rocket 4.4 23:37:53 22° SW 23:40:53 45° WNW 23:45:57 10° N
YAOGAN 11 4.2 23:41:35 73° W 23:41:35 73° W 23:46:00 10° NNW
COSMOS 2428 3.3 23:36:27 10° N 23:41:52 43° ENE 23:42:49 40° E
CZ-2C R/B 2.6 23:37:21 10° NNE 23:42:58 68° ESE 23:43:23 65° SE
Cosmos 540 Rocket 3.5 23:42:30 56° SW 23:43:29 73° WNW 23:48:41 10° NNE
H-2A R/B 4.3 23:42:20 11° WSW 23:44:49 15° W 23:47:34 10° WNW
ISS -0.8 23:53:10 10° WNW 23:55:27 17° NNW 23:57:44 10° NNE
